Regional Weather Roundup
Issued by NWS

Home | Current Version | Previous Version | Graphics & Text | Print | Product List | Glossary On
Versions: 1 2 3 4 5 6 7 8 9 10 11 12 13 14 15 16 17 18 19 20 21 22 23 24 25 26 27 28 29 30 31 32 33 34 35 36 37 38 39 40 41 42 43 44 45 46 47 48 49 50
000
ASUS43 KMPX 292010
RWRMN
WEATHER ROUNDUP FOR MINNESOTA
NATIONAL WEATHER SERVICE TWIN CITIES/CHANHASSEN MN
300 PM CDT FRI MAY 29 2015


NOTE: "FAIR" INDICATES FEW OR NO CLOUDS BELOW 12,000 FEET WITH NO
SIGNIFICANT WEATHER AND/OR OBSTRUCTIONS TO VISIBILITY. N/A MEANS
CURRENT SKY AND/OR WEATHER CONDITIONS ARE NOT AVAILABLE.

MNZ060>063-068>070-292100-
   Twin Cities Metro

CITY           SKY/WX    TMP DP  RH WIND       PRES   REMARKS
TWIN CITIES    RAIN      66  64  93 N8        29.90S FOG
ST PAUL        LGT RAIN  67  64  90 NW9       29.91R
CRYSTAL        LGT RAIN  66  63  90 NW8       29.90S
BLAINE         LGT RAIN  66  64  94 N12       29.91S
LAKEVILLE      CLOUDY    66  64  94 W5        29.90S
EDEN PRAIRIE   LGT RAIN  66  63  90 N10       29.89S FOG
SOUTH ST PAUL  LGT RAIN  67  63  87 NW8       29.90R
LAKE ELMO      DRIZZLE   66  63  88 NW9       29.91R
$$
MNZ001>005-007-008-013>017-022>024-027-028-292100-
   Northwest Minnesota

CITY           SKY/WX    TMP DP  RH WIND       PRES   REMARKS
BEMIDJI        CLOUDY    49  41  73 NW13      30.09S
HALLOCK        MOSUNNY   54  37  54 N24       30.19S
ROSEAU         SUNNY     54  41  62 N21G26    30.13S
WARROAD        MOSUNNY   52  39  62 N14G24    30.13R
THIEF RVR FALL MOSUNNY   52  39  62 N20G28    30.15S
CROOKSTON      MOSUNNY   54  39  58 N23G29    30.17R
FOSSTON        CLOUDY    48  43  81 N17G24    30.13S
DETROIT LAKES  CLOUDY    50  41  71 N14G25    30.11S
MOORHEAD       CLOUDY    48  41  76 N24       30.15S
PARK RAPIDS    CLOUDY    54  42  64 N16       30.06R
MAHNOMEN       CLOUDY    48  41  76 N23       30.12R
$$
MNZ006-009>011-018-025>026-292100-
   North Central Minnesota

CITY           SKY/WX    TMP DP  RH WIND       PRES   REMARKS
BAUDETTE       MOSUNNY   52  40  63 N20G30    30.09S
FLAG ISLAND    MOSUNNY   48  37  66 N23G32    30.11S
INTL FALLS     CLOUDY    52  42  69 NW17G23   30.06R
WASKISH        CLOUDY    52  43  71 NW12      30.10R
BIG FORK       PTSUNNY   55  45  67 NW7       30.04S
LONGVILLE      CLOUDY    52  46  82 N8G17     30.04R
GRAND RAPIDS   CLOUDY    52  45  76 NW17G23   30.02S
CRANE LAKE     CLOUDY    50  46  87 NW12G20   30.03S
COOK           CLOUDY    54  48  82 NW8       30.01R
WALKER         CLOUDY    49  42  75 N10G16    30.07R
$$
MNZ012-019>021-037-292100-
   Northeast Minnesota

CITY           SKY/WX    TMP DP  RH WIND       PRES   REMARKS
DULUTH         LGT RAIN  61  55  81 N9        29.93S
HIBBING        CLOUDY    51  49  92 NW18      30.00R
EVELETH        CLOUDY    54  50  87 NW8G17    29.99R
DULUTH HARBOR  CLOUDY    63  55  77 N9        29.93R
TWO HARBORS    DRIZZLE   64  57  77 N7        29.91R
SILVER BAY     CLOUDY    64  55  72 NW9       29.90R
GRAND MARAIS     N/A     65  54  67 N8        29.87R
G MARAIS ARPRT CLOUDY    57  52  82 NW10G16   29.92R
$$
MNZ029>031-032-039>041-046>048-054>057-064-292100-
   West Central Minnesota

CITY           SKY/WX    TMP DP  RH WIND       PRES   REMARKS
FERGUS FALLS   CLOUDY    52  45  76 N17G30    30.09S
WHEATON        CLOUDY    45  41  87 N23G36    30.12R
MORRIS         LGT RAIN  52  48  87 NW22G29   30.03S
ALEXANDRIA     CLOUDY    53  49  86 N14G25    30.03R
ELBOW LAKE     CLOUDY    51  46  84 N18G29    30.05S
WADENA         CLOUDY    52  46  82 N17G24    30.04R
GLENWOOD       DRIZZLE   54  52  94 N16       30.01R
APPLETON       LGT RAIN  52  48  87 N25G35    30.03R
BENSON         DRIZZLE   54  50  87 N18G25    30.02R
ORTONVILLE     LGT RAIN  46  43  87 N24G33    30.07R
MADISON        LGT RAIN  48  46  93 N24G33    30.04R
WILLMAR        LGT RAIN  61  61 100 N20       29.97S
$$
MNZ033>034-036-042>043-049>051-058-059-292100-
   Central Minnesota

CITY           SKY/WX    TMP DP  RH WIND       PRES   REMARKS
ST CLOUD       LGT RAIN  61  59  93 N13G18    29.94S
SAUK CENTRE    DRIZZLE   52  50  93 N14G22    30.00R
PAYNESVILLE    LGT RAIN  57  56  95 NW13G20   29.97R
AITKIN         LGT RAIN  54  48  82 N12G20    29.99R
PINE RIVER     CLOUDY    52  46  82 NW12G17   30.07R
BRAINERD       LGT RAIN  52  49  89 N15       30.01R
STAPLES        CLOUDY    52  46  82 N17       30.03R
LONG PRAIRIE   RAIN      52  50  93 NW12G22   30.01S
LITTLE FALLS   CLOUDY    54  50  87 N12G20    29.99R
LITCHFIELD     LGT RAIN  63  63 100 N12       29.94S
BUFFALO        DRIZZLE   65  61  89 N3        29.94R
MAPLE LAKE     RAIN      66  64  92 N10       29.94R
$$
MNZ037-044-045-052-053-292100-
   East Central Minnesota

CITY           SKY/WX    TMP DP  RH WIND       PRES   REMARKS
PRINCETON      DRIZZLE   63  61  94 N12       29.94R
MORA           LGT RAIN  61  55  82 N7        29.95R
CAMBRIDGE      LGT RAIN  66  57  72 NW7       29.90S
RUSH CITY      LGT RAIN  64  62  91 CALM      29.91S
MOOSE LAKE     CLOUDY    63  55  77 N12G18    29.93R
HINCKLEY       LGT RAIN  63  59  88 N12       29.93R
CLOQUET        DRIZZLE   57  54  88 NW13G22   29.95R
MCGREGOR       CLOUDY    54  50  87 N14G25    30.00R
$$
MNZ071>073-080-081-089-090-097-098-292100-
   Southwest Minnesota

CITY           SKY/WX    TMP DP  RH WIND       PRES   REMARKS
MONTEVIDEO     DRIZZLE   54  54 100 N16G25    30.01R
GRANITE FALLS  DRIZZLE   55  53  94 NW15G25   30.00R
CANBY          LGT RAIN  48  46  93 N25G33    30.05R
MARSHALL       CLOUDY    52  45  76 N22G32    30.00R
REDWOOD FALLS  LGT RAIN  61  60  97 NW12G20   29.94R
OLIVIA         LGT RAIN  59  55  88 N14G20    29.94R
PIPESTONE      RAIN      52  48  87 N17G25    29.99R
WINDOM         HVY RAIN  57  55  94 NW24      29.94R
WORTHINGTON    CLOUDY    55  50  82 N24       29.95R
JACKSON        LGT RAIN  63  61  94 NW22G32   29.92R
TRACY          LGT RAIN  53  52  97 NW20G28   29.99R
SLAYTON        RAIN      51  51 100 N21G29    29.99R
$$
MNZ065>067-074>077-082>085-091>093-292100-
   South Central Minnesota

CITY           SKY/WX    TMP DP  RH WIND       PRES   REMARKS
MANKATO        CLOUDY    68  64  88 N8        29.90S
NEW ULM        RAIN      64  63  94 N14       29.91R
ST JAMES       CLOUDY    70  64  83 NW10      29.90S
FAIRMONT       CLOUDY    68  61  77 N7        29.89S
GLENCOE        RAIN      64  62  94 N10       29.92R
FARIBAULT      CLOUDY    66  64  94 CALM      29.90F
OWATONNA       HVY RAIN  66  64  94 N6        29.91R
WASECA         LGT RAIN  68  63  83 N6        29.91S
ALBERT LEA     CLOUDY    72  64  78 SW6       29.90S
$$
MNZ078>079-086>088-094>096-292100-
   Southeast Minnesota

CITY           SKY/WX    TMP DP  RH WIND       PRES   REMARKS
ROCHESTER      CLOUDY    68  62  81 N14       29.91R
RED WING       RAIN      70  64  83 W6        29.89S
STANTON        CLOUDY    69  63  82 CALM      29.90S
DODGE CENTER   TSTM      63  61  94 N8        29.91S
WINONA         CLOUDY    75  64  69 N3        29.88S
AUSTIN         CLOUDY    70  64  83 W9        29.90S
PRESTON        CLOUDY    72  63  72 SW7       29.91F
$$
ABBREVIATIONS USED IN REMARKS
   TC - TEMPERATURES IN CELSIUS
  WCI - WIND CHILL INDEX
   HX - HEAT INDEX
  VSB - VISIBILITY
$$


USA.gov is the U.S. government's official web portal to all federal, state and local government web resources and services.